Find Tianxiang 1

NORAD ID: 44310 Int'l Des: NNA 2019-032 Owner: DKJ Country: CN operational
LEOCIRCULAR

リアルタイム位置

3D地球を読み込み中...

Tianxiang 1について

説明を読み込み中...

次回通過

Passes for default location (London). Set your location on the main map for personalized predictions.

高度履歴

Loading altitude history...

軌道要素

1 44310U 19032A 26106.80798402 .00006526 00000-0 25225-3 0 9998
2 44310 44.9705 32.0589 0008316 265.2806 94.7127 15.27005019377802
Epoch: Apr 16, 2026 • Age: 5 hours

現在のステータス

高度 490.0 km
速度 7.62 km/s
衛星直下点 30.63°N, 142.62°W
打ち上げ日 Jun 5, 2019
運用期間 6.8 years
タイプ other

技術仕様

分類 Payload
質量 65.00 kg
乾燥質量 65.00 kg
総質量 65.00 kg
長さ 1.00 m
直径 1.00 m
スパン 1.00 m
形状 Box
製造者 DKJ
バスタイプ Tiandi
フェーズステータス In Orbit
所有者/国 DKJ/CN

Most Searched